Home   Weather   Antwerp   Past weeks

Flag for Belgium Past Weather in Antwerp, Belgium — Yesterday and Last 2 Weeks

Now
34 °F

Fog.


Feels Like: 30 °F
Forecast: 30 / 37 °F
Wind: 5 mph from Southwest

Location: Antwerp / Deurne

Current Time: Jan 24, 2017 at 12:21:11 am

Latest Report: Jan 23, 2017 at 11:50 pm


Visibility: 1 mi

Pressure: 30.33 "Hg

Humidity: 93%

Dew Point: 32 °F

Location of AntwerpLocation

Past Weather in Antwerp — Graph

°F

Antwerp Temperature Yesterday

Maximum temperature yesterday: 39 °F (at 1:20 pm)
Minimum temperature yesterday: 32 °F (at 6:20 am)
Average temperature yesterday: 35 °F

High & Low Weather Summary for the Past Weeks

 TemperatureHumidityPressure
High52 °F (Jan 11, 1:20 pm)100% (Jan 8, 10:20 pm)30.72 "Hg (Jan 8, 10:20 pm)
Low18 °F (Jan 22, 4:20 am)29% (Jan 20, 2:50 pm)28.97 "Hg (Jan 12, 10:50 pm)
Average35 °F83%30.20 "Hg
* Reported Jan 8 10:20 pm — Jan 23 10:50 pm, Antwerp, Weather by CustomWeather, © 2017

Note: Actual official high and low records may vary slightly from our data, if they occured in-between our weather recording intervals... More about our weather records

Advertising

Antwerp Weather History for the Previous 24 Hours

Scroll right to see more
 ConditionsComfort  
Time TempWeatherWind HumidityBarometerVisibility
10:50 pm
Mon, Jan 23
34 °FFog.8 mph93%30.33 "Hg1 mi
10:20 pm34 °FFog.8 mph93%30.33 "Hg1 mi
9:50 pm32 °FIce fog.6 mph93%30.33 "Hg1 mi
9:20 pm34 °FFog.6 mph87%30.33 "Hg1 mi
8:50 pm34 °FFog.7 mph87%30.33 "Hg1 mi
8:20 pm34 °FFog.6 mph87%30.33 "Hg1 mi
7:50 pm34 °FFog.7 mph87%30.33 "Hg1 mi
7:20 pm34 °FFog.8 mph87%30.33 "Hg1 mi
6:50 pm36 °FFog.8 mph87%30.33 "Hg1 mi
6:20 pm36 °FFog.7 mph87%30.33 "Hg1 mi
5:50 pm36 °FFog.7 mph87%30.33 "Hg2 mi
5:20 pm37 °FFog.6 mph81%30.33 "Hg2 mi
4:50 pm37 °FFog.8 mph81%30.33 "Hg2 mi
4:20 pm37 °FFog.7 mph81%30.33 "Hg2 mi
3:50 pm39 °FFog.7 mph81%30.33 "Hg2 mi
3:20 pm39 °FPartly sunny.6 mph75%30.33 "Hg2 mi
2:50 pm39 °FPartly sunny.5 mph75%30.33 "Hg2 mi
2:20 pm39 °FPartly sunny.6 mph75%30.33 "Hg3 mi
1:50 pm39 °FPartly sunny.3 mph75%30.33 "Hg3 mi
1:20 pm39 °FFog.2 mph81%30.36 "Hg3 mi
12:50 pm37 °FFog.3 mph81%30.36 "Hg3 mi
12:20 pm37 °FFog.3 mph81%30.36 "Hg3 mi
11:50 am37 °FFog.3 mph81%30.36 "Hg2 mi
11:20 am37 °FFog.2 mph87%30.36 "Hg2 mi
10:50 am36 °FFog.1 mph93%30.36 "Hg2 mi
10:20 am37 °FFog.2 mph81%30.36 "Hg2 mi
9:50 am36 °FFog.1 mph87%30.36 "Hg2 mi
9:20 am34 °FFog.1 mph93%30.36 "Hg2 mi
8:50 am34 °FFog.1 mph93%30.36 "Hg1 mi
8:20 am34 °FFog.1 mph93%30.36 "Hg1 mi
7:50 am32 °FIce fog.1 mph93%30.36 "Hg1 mi
7:20 am34 °FFog.No wind87%30.33 "Hg2 mi
6:50 am34 °FFog.1 mph93%30.33 "Hg1 mi
6:20 am32 °FIce fog.1 mph93%30.33 "Hg2 mi
5:50 am34 °FFog.2 mph93%30.33 "Hg2 mi
5:20 am34 °FFog.3 mph93%30.33 "Hg2 mi
4:50 am34 °FFog.1 mph87%30.33 "Hg2 mi
4:20 am34 °FFog.2 mph87%30.33 "Hg2 mi
3:50 am34 °FFog.1 mph93%30.33 "Hg2 mi
3:20 am34 °FFog.2 mph93%30.33 "Hg2 mi
2:50 am34 °FFog.2 mph93%30.33 "Hg2 mi
2:20 am34 °FFog.1 mph93%30.36 "Hg2 mi
1:50 am34 °FFog.No wind87%30.36 "Hg2 mi
1:20 am34 °FFog.1 mph87%30.36 "Hg2 mi
12:50 am34 °FFog.2 mph93%30.36 "Hg2 mi
12:20 am34 °FFog.1 mph87%30.36 "Hg2 mi
Weather by CustomWeather, © 2017

See weather overviewHow to use our weather pages